This is the latest recevied weather packets stored in our database for station/object N7CEE-2. If no packets are shown the sender has not sent any weather packets the latest 10 day(s).
| Time | Temp. | Humidity | Pressure | Rain* | Wind** | Luminosity | Snow |
|---|---|---|---|---|---|---|---|
| 1777471555 | 17.22° C | 36% | 1017.8 hPa | 0 mm | - | 125 W/m² | - |
| 1777471251 | 17.78° C | 34% | 1017.7 hPa | 0 mm | - | 119 W/m² | - |
| 1777470949 | 17.22° C | 32% | 1017.7 hPa | 0 mm | - | 116 W/m² | - |
| 1777470645 | 16.11° C | 34% | 1017.8 hPa | 0 mm | - | 96 W/m² | - |
| 1777470341 | 15.56° C | 34% | 1017.5 hPa | 0 mm | - | 92 W/m² | - |
| 1777470038 | 15.56° C | 34% | 1017.6 hPa | 0 mm | - | 57 W/m² | - |
| 1777469734 | 15° C | 35% | 1017.4 hPa | 0 mm | - | 48 W/m² | - |
| 1777469430 | 14.44° C | 36% | 1017.5 hPa | 0 mm | - | 40 W/m² | - |
| 1777469125 | 14.44° C | 36% | 1017.5 hPa | 0 mm | - | 36 W/m² | - |
| 1777468825 | 13.89° C | 36% | 1017.5 hPa | 0 mm | - | 34 W/m² | - |
| 1777468522 | 13.89° C | 37% | 1017.5 hPa | 0 mm | - | 30 W/m² | - |
| 1777468218 | 13.89° C | 38% | 1017.3 hPa | 0 mm | - | 26 W/m² | - |
| 1777467915 | 13.89° C | 38% | 1017.5 hPa | 0 mm | - | 21 W/m² | - |
| 1777467611 | 13.89° C | 37% | 1017.5 hPa | 0 mm | - | 15 W/m² | - |
| 1777467306 | 13.89° C | 36% | 1017.4 hPa | 0 mm | - | 10 W/m² | - |
| 1777467002 | 13.89° C | 37% | 1017.2 hPa | 0 mm | - | 7 W/m² | - |
| 1777466700 | 13.89° C | 37% | 1017.4 hPa | 0 mm | - | 4 W/m² | - |
| 1777466397 | 13.89° C | 37% | 1017.3 hPa | 0 mm | - | 3 W/m² | - |
| 1777466093 | 13.89° C | 36% | 1017.1 hPa | 0 mm | - | 1 W/m² | - |
| 1777465789 | 13.89° C | 37% | 1017.1 hPa | 0 mm | - | 0 W/m² | - |
| 1777465485 | 13.89° C | 37% | 1017 hPa | 0 mm | - | 0 W/m² | - |
| 1777465184 | 13.89° C | 37% | 1016.9 hPa | 0 mm | - | 0 W/m² | - |
| 1777464879 | 13.89° C | 38% | 1017 hPa | 0 mm | - | 0 W/m² | - |
| 1777464575 | 13.89° C | 39% | 1017.1 hPa | 0 mm | - | 0 W/m² | - |
| 1777464271 | 13.89° C | 40% | 1017.1 hPa | 0 mm | - | 0 W/m² | - |
* Rain latest hour (hover to see other rain measurements)
** Current wind speed in m/s (hover to see current wind gust speed)